Time,TemperatureF,DewpointF,PressureIn,WindDirection,WindDirectionDegrees,WindSpeedMPH,WindSpeedGustMPH,Humidity,HourlyPrecipIn,Conditions,Clouds,dailyrainin,SoftwareType,DateUTC
2013-01-25 00:00:00,2.3,-14.6,29.65,NNW,339,5.4,5.4,44,0.00,,CLR,0.00,VWS V14.01,2013-01-25 05:00:00,
2013-01-25 00:01:00,2.3,-14.6,29.65,West,272,7.2,7.2,44,0.00,,CLR,0.00,VWS V14.01,2013-01-25 05:01:00,
2013-01-25 00:03:00,2.3,-14.6,29.65,WNW,285,4.5,4.5,44,0.00,,CLR,0.00,VWS V14.01,2013-01-25 05:03:00,
2013-01-25 00:08:00,2.3,-14.6,29.65,West,270,8.1,8.1,44,0.00,,CLR,0.00,VWS V14.01,2013-01-25 05:08:00,
2013-01-25 00:13:00,2.3,-14.6,29.65,SW,234,6.3,6.3,44,0.00,,CLR,0.00,VWS V14.01,2013-01-25 05:13:00,
2013-01-25 00:18:00,2.3,-14.6,29.65,NW,304,5.4,5.4,44,0.00,,CLR,0.00,VWS V14.01,2013-01-25 05:18:00,
2013-01-25 00:23:00,2.3,-14.6,29.65,NW,307,6.3,6.3,44,0.00,,CLR,0.00,VWS V14.01,2013-01-25 05:23:00,
2013-01-25 00:29:00,2.3,-14.6,29.65,NNW,338,4.5,5.8,44,0.00,,CLR,0.00,VWS V14.01,2013-01-25 05:29:00,
2013-01-25 00:34:00,2.3,-14.6,29.65,NW,322,9.8,9.8,44,0.00,,CLR,0.00,VWS V14.01,2013-01-25 05:34:00,
2013-01-25 00:39:00,2.3,-14.6,29.65,West,279,8.1,8.1,44,0.00,,CLR,0.00,VWS V14.01,2013-01-25 05:39:00,
2013-01-25 00:44:00,2.3,-14.6,29.65,NW,305,6.3,6.3,44,0.00,,CLR,0.00,VWS V14.01,2013-01-25 05:44:00,
2013-01-25 00:49:00,2.3,-14.6,29.65,WSW,257,7.2,9.6,44,0.00,,CLR,0.00,VWS V14.01,2013-01-25 05:49:00,
2013-01-25 00:54:00,2.3,-14.6,29.65,WNW,290,10.7,10.7,44,0.00,,CLR,0.00,VWS V14.01,2013-01-25 05:54:00,
2013-01-25 00:59:00,2.3,-14.6,29.65,West,262,15.2,15.2,44,0.00,,CLR,0.00,VWS V14.01,2013-01-25 05:59:00,
2013-01-25 01:04:00,2.3,-14.6,29.65,West,265,4.5,4.5,44,0.00,,CLR,0.00,VWS V14.01,2013-01-25 06:04:00,
2013-01-25 01:09:00,2.3,-14.6,29.65,NW,314,5.4,5.4,44,0.00,,CLR,0.00,VWS V14.01,2013-01-25 06:09:00,
2013-01-25 01:14:00,2.3,-14.6,29.65,WNW,283,5.4,6.3,44,0.00,,CLR,0.00,VWS V14.01,2013-01-25 06:14:00,
2013-01-25 01:19:00,2.3,-14.6,29.65,West,268,9.8,9.8,44,0.00,,CLR,0.00,VWS V14.01,2013-01-25 06:19:00,
2013-01-25 01:24:00,2.3,-14.6,29.65,West,274,6.3,6.3,44,0.00,,CLR,0.00,VWS V14.01,2013-01-25 06:24:00,
2013-01-25 01:30:00,2.3,-14.6,29.65,WNW,284,0.0,0.0,44,0.00,,CLR,0.00,VWS V14.01,2013-01-25 06:30:00,
2013-01-25 01:35:00,2.3,-14.6,29.65,WNW,285,8.1,8.1,44,0.00,,CLR,0.00,VWS V14.01,2013-01-25 06:35:00,
2013-01-25 01:40:00,2.5,-14.4,29.65,West,261,8.1,8.1,44,0.00,,CLR,0.00,VWS V14.01,2013-01-25 06:40:00,
2013-01-25 01:45:00,2.5,-14.4,29.65,NW,314,9.8,9.8,44,0.00,,CLR,0.00,VWS V14.01,2013-01-25 06:45:00,
2013-01-25 01:50:00,2.5,-14.4,29.65,NW,315,8.1,8.1,44,0.00,,CLR,0.00,VWS V14.01,2013-01-25 06:50:00,
2013-01-25 01:55:00,2.5,-14.4,29.65,NW,324,7.2,7.2,44,0.00,,CLR,0.00,VWS V14.01,2013-01-25 06:55:00,
2013-01-25 02:00:00,2.5,-14.4,29.65,WNW,298,0.0,2.2,44,0.00,,CLR,0.00,VWS V14.01,2013-01-25 07:00:00,
2013-01-25 02:05:00,2.5,-14.4,29.65,WNW,296,8.1,8.1,44,0.00,,CLR,0.00,VWS V14.01,2013-01-25 07:05:00,
2013-01-25 02:10:00,2.5,-14.4,29.65,WNW,285,0.0,0.0,44,0.00,,CLR,0.00,VWS V14.01,2013-01-25 07:10:00,
2013-01-25 02:15:00,2.5,-14.4,29.65,WNW,294,0.0,0.0,44,0.00,,CLR,0.00,VWS V14.01,2013-01-25 07:15:00,
2013-01-25 02:21:00,2.5,-14.4,29.65,West,265,0.0,3.1,44,0.00,,CLR,0.00,VWS V14.01,2013-01-25 07:21:00,
2013-01-25 02:26:00,2.5,-14.4,29.65,WSW,252,10.7,10.7,44,0.00,,CLR,0.00,VWS V14.01,2013-01-25 07:26:00,
2013-01-25 02:31:00,2.5,-14.4,29.65,WNW,286,0.0,3.1,44,0.00,,CLR,0.00,VWS V14.01,2013-01-25 07:31:00,
2013-01-25 02:36:00,2.5,-14.4,29.65,WNW,285,8.1,8.1,44,0.00,,CLR,0.00,VWS V14.01,2013-01-25 07:36:00,
2013-01-25 02:41:00,2.5,-14.4,29.65,NNW,329,0.0,0.0,44,0.00,,CLR,0.00,VWS V14.01,2013-01-25 07:41:00,
2013-01-25 02:46:00,2.5,-14.4,29.65,West,271,9.8,9.8,44,0.00,,CLR,0.00,VWS V14.01,2013-01-25 07:46:00,
2013-01-25 02:51:00,2.5,-14.4,29.68,WNW,295,6.3,6.3,44,0.00,,CLR,0.00,VWS V14.01,2013-01-25 07:51:00,
2013-01-25 02:57:00,2.5,-14.4,29.68,WNW,284,7.2,7.2,44,0.00,,CLR,0.00,VWS V14.01,2013-01-25 07:57:00,
2013-01-25 03:02:00,2.5,-14.4,29.68,NW,320,4.5,4.5,44,0.00,,CLR,0.00,VWS V14.01,2013-01-25 08:02:00,
2013-01-25 03:07:00,2.5,-14.4,29.68,West,269,7.2,7.2,44,0.00,,CLR,0.00,VWS V14.01,2013-01-25 08:07:00,
2013-01-25 03:12:00,2.5,-14.4,29.68,West,270,9.8,9.8,44,0.00,,CLR,0.00,VWS V14.01,2013-01-25 08:12:00,
2013-01-25 03:17:00,2.5,-14.4,29.68,WNW,291,5.4,5.4,44,0.00,,CLR,0.00,VWS V14.01,2013-01-25 08:17:00,
2013-01-25 03:22:00,2.5,-14.4,29.68,WNW,287,7.2,7.2,44,0.00,,CLR,0.00,VWS V14.01,2013-01-25 08:22:00,
2013-01-25 03:27:00,2.5,-14.4,29.68,WSW,244,10.7,10.7,44,0.00,,CLR,0.00,VWS V14.01,2013-01-25 08:27:00,
2013-01-25 03:32:00,2.5,-14.4,29.68,West,271,9.8,9.8,44,0.00,,CLR,0.00,VWS V14.01,2013-01-25 08:32:00,
2013-01-25 03:37:00,2.5,-14.4,29.68,NNW,345,0.0,3.1,44,0.00,,CLR,0.00,VWS V14.01,2013-01-25 08:37:00,
2013-01-25 03:42:00,2.5,-14.4,29.68,SSW,203,6.3,6.3,44,0.00,,CLR,0.00,VWS V14.01,2013-01-25 08:42:00,
2013-01-25 03:47:00,2.5,-14.4,29.68,WNW,290,6.3,6.3,44,0.00,,CLR,0.00,VWS V14.01,2013-01-25 08:47:00,
2013-01-25 03:52:00,2.5,-14.4,29.68,WNW,290,8.1,8.1,44,0.00,,CLR,0.00,VWS V14.01,2013-01-25 08:52:00,
2013-01-25 03:57:00,2.5,-14.4,29.68,West,276,5.4,5.4,44,0.00,,CLR,0.00,VWS V14.01,2013-01-25 08:57:00,
2013-01-25 04:02:00,2.5,-14.4,29.68,WNW,292,5.4,5.4,44,0.00,,CLR,0.00,VWS V14.01,2013-01-25 09:02:00,
2013-01-25 04:07:00,2.5,-14.4,29.68,WNW,302,5.4,5.4,44,0.00,,CLR,0.00,VWS V14.01,2013-01-25 09:07:00,
2013-01-25 04:12:00,2.5,-14.4,29.68,WNW,293,7.2,7.2,44,0.00,,CLR,0.00,VWS V14.01,2013-01-25 09:12:00,
2013-01-25 04:17:00,2.5,-14.4,29.71,West,270,0.0,4.0,44,0.00,,CLR,0.00,VWS V14.01,2013-01-25 09:17:00,
2013-01-25 04:22:00,2.5,-14.4,29.71,West,269,10.7,10.7,44,0.00,,CLR,0.00,VWS V14.01,2013-01-25 09:22:00,
2013-01-25 04:27:00,2.5,-14.4,29.71,WNW,300,5.4,5.4,44,0.00,,CLR,0.00,VWS V14.01,2013-01-25 09:27:00,
2013-01-25 04:33:00,2.5,-14.4,29.71,West,261,10.7,10.7,44,0.00,,CLR,0.00,VWS V14.01,2013-01-25 09:33:00,
2013-01-25 04:38:00,2.5,-14.4,29.71,SW,235,10.7,10.7,44,0.00,,CLR,0.00,VWS V14.01,2013-01-25 09:38:00,
2013-01-25 04:43:00,2.7,-14.3,29.71,WSW,254,7.2,7.2,44,0.00,,CLR,0.00,VWS V14.01,2013-01-25 09:43:00,
2013-01-25 04:48:00,2.7,-14.3,29.71,West,274,8.1,8.1,44,0.00,,CLR,0.00,VWS V14.01,2013-01-25 09:48:00,
2013-01-25 04:53:00,2.7,-14.3,29.71,WSW,248,8.1,8.1,44,0.00,,CLR,0.00,VWS V14.01,2013-01-25 09:53:00,
2013-01-25 04:58:00,2.7,-14.3,29.71,WSW,244,6.3,6.3,44,0.00,,CLR,0.00,VWS V14.01,2013-01-25 09:58:00,
2013-01-25 05:03:00,2.7,-14.3,29.71,WSW,253,6.3,6.3,44,0.00,,CLR,0.00,VWS V14.01,2013-01-25 10:03:00,
2013-01-25 05:08:00,2.7,-14.3,29.71,WSW,255,6.3,6.3,44,0.00,,CLR,0.00,VWS V14.01,2013-01-25 10:08:00,
2013-01-25 05:13:00,2.7,-14.3,29.71,WNW,297,7.2,7.2,44,0.00,,CLR,0.00,VWS V14.01,2013-01-25 10:13:00,
2013-01-25 05:18:00,2.5,-14.4,29.71,West,267,11.6,11.6,44,0.00,,CLR,0.00,VWS V14.01,2013-01-25 10:18:00,
2013-01-25 05:23:00,2.5,-14.4,29.71,WSW,238,6.3,6.3,44,0.00,,CLR,0.00,VWS V14.01,2013-01-25 10:23:00,
2013-01-25 05:29:00,2.5,-14.4,29.71,West,271,0.0,3.1,44,0.00,,CLR,0.00,VWS V14.01,2013-01-25 10:29:00,
2013-01-25 05:34:00,2.5,-14.4,29.71,WSW,257,11.6,11.6,44,0.00,,CLR,0.00,VWS V14.01,2013-01-25 10:34:00,
2013-01-25 05:39:00,2.7,-14.3,29.71,West,269,9.8,9.8,44,0.00,,CLR,0.00,VWS V14.01,2013-01-25 10:39:00,
2013-01-25 05:44:00,2.8,-14.1,29.71,WSW,256,7.2,7.2,44,0.00,,CLR,0.00,VWS V14.01,2013-01-25 10:44:00,
2013-01-25 05:49:00,2.8,-14.1,29.71,WNW,293,0.0,0.0,44,0.00,,CLR,0.00,VWS V14.01,2013-01-25 10:49:00,
2013-01-25 05:54:00,3.0,-13.9,29.71,West,262,6.3,6.3,44,0.00,,CLR,0.00,VWS V14.01,2013-01-25 10:54:00,
2013-01-25 05:59:00,3.0,-13.9,29.71,NW,325,5.4,5.4,44,0.00,,CLR,0.00,VWS V14.01,2013-01-25 10:59:00,
2013-01-25 06:04:00,3.0,-13.9,29.71,West,279,6.3,6.3,44,0.00,,CLR,0.00,VWS V14.01,2013-01-25 11:04:00,
2013-01-25 06:10:00,3.0,-13.9,29.71,West,264,4.5,4.5,44,0.00,,CLR,0.00,VWS V14.01,2013-01-25 11:10:00,
2013-01-25 06:15:00,3.0,-13.9,29.71,West,261,4.5,4.5,44,0.00,,CLR,0.00,VWS V14.01,2013-01-25 11:15:00,
2013-01-25 06:20:00,3.0,-13.9,29.71,WNW,287,4.5,4.5,44,0.00,,CLR,0.00,VWS V14.01,2013-01-25 11:20:00,
2013-01-25 06:25:00,3.0,-13.9,29.71,West,262,5.4,5.4,44,0.00,,CLR,0.00,VWS V14.01,2013-01-25 11:25:00,
2013-01-25 06:30:00,3.0,-13.9,29.71,West,270,5.4,5.4,44,0.00,,CLR,0.00,VWS V14.01,2013-01-25 11:30:00,
2013-01-25 06:35:00,3.2,-13.8,29.71,WNW,290,0.0,0.0,44,0.00,,CLR,0.00,VWS V14.01,2013-01-25 11:35:00,
2013-01-25 06:40:00,3.2,-13.8,29.71,WSW,246,6.3,6.3,44,0.00,,CLR,0.00,VWS V14.01,2013-01-25 11:40:00,
2013-01-25 06:45:00,3.4,-13.6,29.71,West,272,0.0,0.0,44,0.00,,CLR,0.00,VWS V14.01,2013-01-25 11:45:00,
2013-01-25 06:50:00,3.4,-13.6,29.71,WSW,250,6.3,6.3,44,0.00,,CLR,0.00,VWS V14.01,2013-01-25 11:50:00,
2013-01-25 06:55:00,3.6,-13.5,29.71,West,274,0.0,0.0,44,0.00,,CLR,0.00,VWS V14.01,2013-01-25 11:55:00,
2013-01-25 07:00:00,3.7,-13.3,29.71,WNW,287,8.1,8.1,44,0.00,,CLR,0.00,VWS V14.01,2013-01-25 12:00:00,
2013-01-25 07:05:00,3.7,-13.3,29.71,WSW,255,11.6,11.6,44,0.00,,CLR,0.00,VWS V14.01,2013-01-25 12:05:00,
2013-01-25 07:10:00,3.7,-13.3,29.71,WSW,254,6.3,6.3,44,0.00,,CLR,0.00,VWS V14.01,2013-01-25 12:10:00,
2013-01-25 07:16:00,3.9,-13.1,29.71,WSW,256,6.3,6.3,44,0.00,,CLR,0.00,VWS V14.01,2013-01-25 12:16:00,
2013-01-25 07:21:00,4.1,-13.0,29.71,West,263,6.3,6.3,44,0.00,,CLR,0.00,VWS V14.01,2013-01-25 12:21:00,
2013-01-25 07:26:00,4.3,-12.8,29.71,WSW,245,5.4,5.4,44,0.00,,CLR,0.00,VWS V14.01,2013-01-25 12:26:00,
2013-01-25 07:31:00,4.5,-12.6,29.71,WNW,284,6.3,6.3,44,0.00,,CLR,0.00,VWS V14.01,2013-01-25 12:31:00,
2013-01-25 07:36:00,4.5,-12.6,29.71,WNW,283,0.0,0.0,44,0.00,,CLR,0.00,VWS V14.01,2013-01-25 12:36:00,
2013-01-25 07:41:00,4.8,-12.3,29.71,WSW,256,0.0,3.6,44,0.00,,CLR,0.00,VWS V14.01,2013-01-25 12:41:00,
2013-01-25 07:46:00,5.0,-12.1,29.71,West,271,7.2,7.2,44,0.00,,CLR,0.00,VWS V14.01,2013-01-25 12:46:00,
2013-01-25 07:51:00,5.4,-11.8,29.74,West,275,6.3,6.3,44,0.00,,CLR,0.00,VWS V14.01,2013-01-25 12:51:00,
2013-01-25 07:56:00,5.5,-11.6,29.74,WSW,248,7.2,7.2,44,0.00,,CLR,0.00,VWS V14.01,2013-01-25 12:56:00,
2013-01-25 08:01:00,5.9,-11.3,29.74,WSW,244,8.1,8.1,44,0.00,,CLR,0.00,VWS V14.01,2013-01-25 13:01:00,
2013-01-25 08:06:00,6.1,-11.1,29.74,WNW,284,5.4,5.4,44,0.00,,CLR,0.00,VWS V14.01,2013-01-25 13:06:00,
2013-01-25 08:11:00,6.4,-10.8,29.74,SSW,201,6.3,6.3,44,0.00,,CLR,0.00,VWS V14.01,2013-01-25 13:11:00,
2013-01-25 08:16:00,6.8,-10.5,29.74,West,268,0.0,3.1,44,0.00,,CLR,0.00,VWS V14.01,2013-01-25 13:16:00,
2013-01-25 08:21:00,7.0,-10.3,29.74,WNW,289,6.3,6.3,44,0.00,,CLR,0.00,VWS V14.01,2013-01-25 13:21:00,
2013-01-25 08:27:00,7.2,-10.2,29.74,West,273,6.3,6.3,44,0.00,,CLR,0.00,VWS V14.01,2013-01-25 13:27:00,
2013-01-25 08:32:00,7.3,-10.0,29.74,West,278,11.6,11.6,44,0.00,,CLR,0.00,VWS V14.01,2013-01-25 13:32:00,
2013-01-25 08:37:00,7.5,-9.8,29.74,West,270,0.0,2.2,44,0.00,,CLR,0.00,VWS V14.01,2013-01-25 13:37:00,
2013-01-25 08:42:00,7.7,-9.7,29.74,SW,231,16.1,16.1,44,0.00,,CLR,0.00,VWS V14.01,2013-01-25 13:42:00,
2013-01-25 08:47:00,7.9,-9.5,29.74,WSW,248,9.8,9.8,44,0.00,,CLR,0.00,VWS V14.01,2013-01-25 13:47:00,
2013-01-25 08:52:00,8.1,-9.3,29.74,SW,230,5.4,5.4,44,0.00,,CLR,0.00,VWS V14.01,2013-01-25 13:52:00,
2013-01-25 08:57:00,8.4,-9.0,29.74,West,277,8.1,8.1,44,0.00,,CLR,0.00,VWS V14.01,2013-01-25 13:57:00,
2013-01-25 09:02:00,8.4,-9.0,29.74,West,264,0.0,0.0,44,0.00,,CLR,0.00,VWS V14.01,2013-01-25 14:02:00,
2013-01-25 09:07:00,8.8,-8.7,29.74,WNW,283,0.0,3.1,44,0.00,,CLR,0.00,VWS V14.01,2013-01-25 14:07:00,
2013-01-25 09:12:00,9.0,-8.5,29.74,NW,310,5.4,5.4,44,0.00,,CLR,0.00,VWS V14.01,2013-01-25 14:12:00,
2013-01-25 09:17:00,9.1,-8.3,29.74,West,279,0.0,4.9,44,0.00,,CLR,0.00,VWS V14.01,2013-01-25 14:17:00,
2013-01-25 09:23:00,9.3,-8.2,29.74,WNW,292,5.4,5.4,44,0.00,,CLR,0.00,VWS V14.01,2013-01-25 14:23:00,
2013-01-25 09:28:00,9.5,-8.0,29.74,WSW,254,5.4,5.8,44,0.00,,CLR,0.00,VWS V14.01,2013-01-25 14:28:00,
2013-01-25 09:33:00,9.7,-7.8,29.74,West,280,0.0,4.9,44,0.00,,CLR,0.00,VWS V14.01,2013-01-25 14:33:00,
2013-01-25 09:38:00,10.0,-7.5,29.74,WSW,252,10.7,10.7,44,0.00,,CLR,0.00,VWS V14.01,2013-01-25 14:38:00,
2013-01-25 09:43:00,10.2,-7.3,29.74,West,265,17.4,17.4,44,0.00,,CLR,0.00,VWS V14.01,2013-01-25 14:43:00,
2013-01-25 09:48:00,10.4,-7.2,29.74,WNW,282,7.2,7.2,44,0.00,,CLR,0.00,VWS V14.01,2013-01-25 14:48:00,
2013-01-25 09:53:00,10.8,-6.8,29.74,West,281,8.1,8.1,44,0.00,,CLR,0.00,VWS V14.01,2013-01-25 14:53:00,
2013-01-25 09:58:00,10.9,-6.7,29.74,WNW,297,0.0,2.2,44,0.00,,CLR,0.00,VWS V14.01,2013-01-25 14:58:00,
2013-01-25 10:03:00,11.1,-6.5,29.74,NW,304,6.3,6.3,44,0.00,,CLR,0.00,VWS V14.01,2013-01-25 15:03:00,
2013-01-25 10:08:00,11.7,-6.0,29.74,WSW,237,5.4,5.4,44,0.00,,CLR,0.00,VWS V14.01,2013-01-25 15:08:00,
2013-01-25 10:13:00,12.0,-5.7,29.74,NNW,340,7.2,7.2,44,0.00,,CLR,0.00,VWS V14.01,2013-01-25 15:13:00,
2013-01-25 10:18:00,12.0,-5.7,29.74,NNW,328,5.4,5.4,44,0.00,,CLR,0.00,VWS V14.01,2013-01-25 15:18:00,
2013-01-25 10:24:00,12.4,-5.4,29.74,NW,321,11.6,11.6,44,0.00,,CLR,0.00,VWS V14.01,2013-01-25 15:24:00,
2013-01-25 10:29:00,12.6,-5.2,29.74,NW,308,7.2,7.2,44,0.00,,CLR,0.00,VWS V14.01,2013-01-25 15:29:00,
2013-01-25 10:34:00,12.7,-5.0,29.74,West,273,7.2,7.2,44,0.00,,CLR,0.00,VWS V14.01,2013-01-25 15:34:00,
2013-01-25 10:39:00,13.3,-4.6,29.74,North,0,5.4,5.4,44,0.00,,CLR,0.00,VWS V14.01,2013-01-25 15:39:00,
2013-01-25 10:44:00,13.3,-4.6,29.74,NW,318,5.4,5.4,44,0.00,,CLR,0.00,VWS V14.01,2013-01-25 15:44:00,
2013-01-25 10:49:00,13.5,-4.4,29.74,WNW,292,0.0,4.0,44,0.00,,CLR,0.00,VWS V14.01,2013-01-25 15:49:00,
2013-01-25 10:54:00,13.6,-4.2,29.74,West,273,6.3,6.3,44,0.00,,CLR,0.00,VWS V14.01,2013-01-25 15:54:00,
2013-01-25 10:59:00,13.8,-4.1,29.74,West,264,6.3,6.3,44,0.00,,CLR,0.00,VWS V14.01,2013-01-25 15:59:00,
2013-01-25 11:04:00,14.0,-6.4,29.74,SW,223,5.4,5.4,39,0.00,,CLR,0.00,VWS V14.01,2013-01-25 16:04:00,
2013-01-25 11:10:00,14.2,-6.2,29.74,North,11,5.4,5.4,39,0.00,,CLR,0.00,VWS V14.01,2013-01-25 16:10:00,
2013-01-25 11:15:00,14.4,-6.6,29.74,NW,305,0.0,2.2,38,0.00,,CLR,0.00,VWS V14.01,2013-01-25 16:15:00,
2013-01-25 11:20:00,14.5,-6.4,29.74,NNW,340,6.3,6.3,38,0.00,,CLR,0.00,VWS V14.01,2013-01-25 16:20:00,
2013-01-25 11:25:00,15.1,-5.4,29.74,NW,311,5.4,5.4,39,0.00,,CLR,0.00,VWS V14.01,2013-01-25 16:25:00,
2013-01-25 11:30:00,15.6,-4.9,29.74,NNW,327,4.5,4.5,39,0.00,,CLR,0.00,VWS V14.01,2013-01-25 16:30:00,
2013-01-25 11:35:00,15.8,-5.3,29.74,NNW,341,9.8,9.8,38,0.00,,CLR,0.00,VWS V14.01,2013-01-25 16:35:00,
2013-01-25 11:40:00,15.8,-5.3,29.74,NW,312,5.4,5.4,38,0.00,,CLR,0.00,VWS V14.01,2013-01-25 16:40:00,
2013-01-25 11:45:00,15.8,-5.3,29.74,WNW,289,0.0,4.0,38,0.00,,CLR,0.00,VWS V14.01,2013-01-25 16:45:00,
2013-01-25 11:50:00,16.0,-5.7,29.71,West,273,10.7,10.7,37,0.00,,CLR,0.00,VWS V14.01,2013-01-25 16:50:00,
2013-01-25 11:55:00,16.0,-5.7,29.71,West,272,8.1,8.1,37,0.00,,CLR,0.00,VWS V14.01,2013-01-25 16:55:00,
2013-01-25 12:01:00,16.3,-5.4,29.71,WNW,293,7.2,7.2,37,0.00,,CLR,0.00,VWS V14.01,2013-01-25 17:01:00,
2013-01-25 12:06:00,16.9,-4.9,29.74,NE,50,6.3,6.3,37,0.00,,CLR,0.00,VWS V14.01,2013-01-25 17:06:00,
2013-01-25 12:11:00,17.1,-4.7,29.74,WNW,289,11.6,11.6,37,0.00,,CLR,0.00,VWS V14.01,2013-01-25 17:11:00,
2013-01-25 12:16:00,17.2,-4.6,29.74,NE,56,5.4,5.4,37,0.00,,CLR,0.00,VWS V14.01,2013-01-25 17:16:00,
2013-01-25 12:21:00,17.2,-4.6,29.71,West,260,16.6,16.6,37,0.00,,CLR,0.00,VWS V14.01,2013-01-25 17:21:00,
2013-01-25 12:26:00,17.1,-5.3,29.71,WSW,246,12.5,12.5,36,0.00,,CLR,0.00,VWS V14.01,2013-01-25 17:26:00,
2013-01-25 12:31:00,16.7,-5.6,29.71,West,276,9.8,9.8,36,0.00,,CLR,0.00,VWS V14.01,2013-01-25 17:31:00,
2013-01-25 12:36:00,16.5,-5.8,29.71,WNW,288,12.5,12.5,36,0.00,,CLR,0.00,VWS V14.01,2013-01-25 17:36:00,
2013-01-25 12:41:00,16.7,-5.6,29.71,WNW,294,5.4,5.4,36,0.00,,CLR,0.00,VWS V14.01,2013-01-25 17:41:00,
2013-01-25 12:46:00,16.7,-5.6,29.71,WNW,303,0.0,0.0,36,0.00,,CLR,0.00,VWS V14.01,2013-01-25 17:46:00,
2013-01-25 12:52:00,16.7,-5.6,29.71,WNW,292,10.7,10.7,36,0.00,,CLR,0.00,VWS V14.01,2013-01-25 17:52:00,
2013-01-25 12:57:00,16.5,-5.8,29.71,WNW,287,5.4,5.4,36,0.00,,CLR,0.00,VWS V14.01,2013-01-25 17:57:00,
2013-01-25 13:02:00,16.3,-5.9,29.71,WNW,302,9.8,9.8,36,0.00,,CLR,0.00,VWS V14.01,2013-01-25 18:02:00,
2013-01-25 13:07:00,16.3,-5.9,29.71,NNW,341,0.0,3.6,36,0.00,,CLR,0.00,VWS V14.01,2013-01-25 18:07:00,
2013-01-25 13:12:00,16.5,-5.8,29.71,WNW,294,7.2,7.2,36,0.00,,CLR,0.00,VWS V14.01,2013-01-25 18:12:00,
2013-01-25 13:17:00,16.7,-5.6,29.71,WNW,302,7.2,7.2,36,0.00,,CLR,0.00,VWS V14.01,2013-01-25 18:17:00,
2013-01-25 13:22:00,16.9,-5.4,29.71,NW,313,0.0,0.0,36,0.00,,CLR,0.00,VWS V14.01,2013-01-25 18:22:00,
2013-01-25 13:27:00,16.9,-5.4,29.71,WSW,246,5.4,5.4,36,0.00,,CLR,0.00,VWS V14.01,2013-01-25 18:27:00,
2013-01-25 13:32:00,17.1,-5.3,29.68,WNW,296,4.5,4.5,36,0.00,,CLR,0.00,VWS V14.01,2013-01-25 18:32:00,
2013-01-25 13:37:00,17.4,-5.0,29.68,WNW,287,4.5,4.5,36,0.00,,CLR,0.00,VWS V14.01,2013-01-25 18:37:00,
2013-01-25 13:43:00,17.6,-4.8,29.68,WNW,288,0.0,0.0,36,0.00,,CLR,0.00,VWS V14.01,2013-01-25 18:43:00,
2013-01-25 13:48:00,18.0,-5.1,29.68,WSW,253,14.3,14.3,35,0.00,,CLR,0.00,VWS V14.01,2013-01-25 18:48:00,
2013-01-25 13:53:00,18.1,-4.9,29.68,West,263,15.2,15.2,35,0.00,,CLR,0.00,VWS V14.01,2013-01-25 18:53:00,
2013-01-25 13:58:00,18.0,-5.1,29.68,North,0,4.5,4.5,35,0.00,,CLR,0.00,VWS V14.01,2013-01-25 18:58:00,
2013-01-25 14:03:00,18.0,-5.1,29.68,NW,315,5.4,5.4,35,0.00,,CLR,0.00,VWS V14.01,2013-01-25 19:03:00,
2013-01-25 14:08:00,17.8,-5.2,29.68,NNW,328,6.3,6.3,35,0.00,,CLR,0.00,VWS V14.01,2013-01-25 19:08:00,
2013-01-25 14:13:00,18.0,-5.1,29.68,NW,321,0.0,0.0,35,0.00,,CLR,0.00,VWS V14.01,2013-01-25 19:13:00,
2013-01-25 14:18:00,18.1,-4.9,29.68,NW,309,0.0,0.0,35,0.00,,CLR,0.00,VWS V14.01,2013-01-25 19:18:00,
2013-01-25 14:23:00,18.3,-4.7,29.68,NNW,330,0.0,3.1,35,0.00,,CLR,0.00,VWS V14.01,2013-01-25 19:23:00,
2013-01-25 14:28:00,18.3,-4.7,29.68,WNW,297,0.0,5.8,35,0.00,,CLR,0.00,VWS V14.01,2013-01-25 19:28:00,
2013-01-25 14:34:00,18.5,-4.6,29.71,WSW,253,7.2,7.2,35,0.00,,CLR,0.00,VWS V14.01,2013-01-25 19:34:00,
2013-01-25 14:39:00,18.9,-4.3,29.71,NNW,327,9.8,9.8,35,0.00,,CLR,0.00,VWS V14.01,2013-01-25 19:39:00,
2013-01-25 14:44:00,18.9,-4.3,29.71,West,281,9.8,9.8,35,0.00,,CLR,0.00,VWS V14.01,2013-01-25 19:44:00,
2013-01-25 14:49:00,18.7,-4.4,29.68,NW,311,0.0,2.7,35,0.00,,CLR,0.00,VWS V14.01,2013-01-25 19:49:00,
2013-01-25 14:54:00,19.0,-4.1,29.68,West,275,8.1,8.1,35,0.00,,CLR,0.00,VWS V14.01,2013-01-25 19:54:00,
2013-01-25 14:59:00,18.7,-4.4,29.68,NW,323,5.4,5.4,35,0.00,,CLR,0.00,VWS V14.01,2013-01-25 19:59:00,
2013-01-25 15:04:00,18.5,-4.6,29.68,NW,305,0.0,0.0,35,0.00,,CLR,0.00,VWS V14.01,2013-01-25 20:04:00,
2013-01-25 15:09:00,18.5,-4.6,29.68,West,279,4.5,4.5,35,0.00,,CLR,0.00,VWS V14.01,2013-01-25 20:09:00,
2013-01-25 15:14:00,18.7,-4.4,29.68,WSW,258,0.0,0.0,35,0.00,,CLR,0.00,VWS V14.01,2013-01-25 20:14:00,
2013-01-25 15:19:00,18.9,-4.3,29.68,NW,326,6.3,6.3,35,0.00,,CLR,0.00,VWS V14.01,2013-01-25 20:19:00,
2013-01-25 15:24:00,18.7,-4.4,29.68,West,280,0.0,0.0,35,0.00,,CLR,0.00,VWS V14.01,2013-01-25 20:24:00,
2013-01-25 15:30:00,18.5,-5.2,29.68,WSW,251,10.7,10.7,34,0.00,,CLR,0.00,VWS V14.01,2013-01-25 20:30:00,
2013-01-25 15:35:00,18.3,-5.3,29.68,NW,313,0.0,3.6,34,0.00,,CLR,0.00,VWS V14.01,2013-01-25 20:35:00,
2013-01-25 15:40:00,18.1,-5.5,29.68,NNW,339,0.0,2.2,34,0.00,,CLR,0.00,VWS V14.01,2013-01-25 20:40:00,
2013-01-25 15:45:00,17.8,-5.8,29.68,WNW,288,0.0,0.0,34,0.00,,CLR,0.00,VWS V14.01,2013-01-25 20:45:00,
2013-01-25 15:50:00,17.6,-5.4,29.71,WNW,295,0.0,0.0,35,0.00,,CLR,0.00,VWS V14.01,2013-01-25 20:50:00,
2013-01-25 15:55:00,17.4,-5.5,29.71,NNW,342,6.3,6.3,35,0.00,,CLR,0.00,VWS V14.01,2013-01-25 20:55:00,
2013-01-25 16:00:00,17.1,-5.9,29.71,WNW,283,0.0,0.0,35,0.00,,CLR,0.00,VWS V14.01,2013-01-25 21:00:00,
2013-01-25 16:05:00,16.7,-6.2,29.68,NW,307,0.0,0.0,35,0.00,,CLR,0.00,VWS V14.01,2013-01-25 21:05:00,
2013-01-25 16:10:00,16.5,-6.3,29.68,NW,307,0.0,0.0,35,0.00,,CLR,0.00,VWS V14.01,2013-01-25 21:10:00,
2013-01-25 16:15:00,16.2,-6.7,29.68,NW,305,0.0,3.1,35,0.00,,CLR,0.00,VWS V14.01,2013-01-25 21:15:00,
2013-01-25 16:21:00,16.0,-6.8,29.68,West,277,7.2,7.2,35,0.00,,CLR,0.00,VWS V14.01,2013-01-25 21:21:00,
2013-01-25 16:26:00,15.8,-7.0,29.68,West,272,0.0,0.0,35,0.00,,CLR,0.00,VWS V14.01,2013-01-25 21:26:00,
2013-01-25 16:31:00,15.4,-7.3,29.68,WNW,301,0.0,0.0,35,0.00,,CLR,0.00,VWS V14.01,2013-01-25 21:31:00,
2013-01-25 16:36:00,15.3,-7.5,29.68,West,267,0.0,0.0,35,0.00,,CLR,0.00,VWS V14.01,2013-01-25 21:36:00,
2013-01-25 16:41:00,15.1,-7.6,29.68,NW,319,0.0,2.7,35,0.00,,CLR,0.00,VWS V14.01,2013-01-25 21:41:00,
2013-01-25 16:46:00,15.1,-7.6,29.68,West,277,4.5,4.5,35,0.00,,CLR,0.00,VWS V14.01,2013-01-25 21:46:00,
2013-01-25 16:51:00,14.9,-7.8,29.71,West,274,0.0,0.0,35,0.00,,CLR,0.00,VWS V14.01,2013-01-25 21:51:00,
2013-01-25 16:56:00,14.5,-8.1,29.71,West,264,6.3,6.3,35,0.00,,CLR,0.00,VWS V14.01,2013-01-25 21:56:00,
2013-01-25 17:01:00,14.4,-8.3,29.71,WSW,254,0.0,0.0,35,0.00,,CLR,0.00,VWS V14.01,2013-01-25 22:01:00,
2013-01-25 17:06:00,14.2,-8.4,29.71,WSW,250,0.0,0.0,35,0.00,,CLR,0.00,VWS V14.01,2013-01-25 22:06:00,
2013-01-25 17:11:00,14.0,-8.0,29.71,WSW,250,0.0,0.0,36,0.00,,CLR,0.00,VWS V14.01,2013-01-25 22:11:00,
2013-01-25 17:16:00,13.6,-8.4,29.71,WSW,250,0.0,0.0,36,0.00,,CLR,0.00,VWS V14.01,2013-01-25 22:16:00,
2013-01-25 17:21:00,13.5,-8.5,29.71,WSW,250,0.0,0.0,36,0.00,,CLR,0.00,VWS V14.01,2013-01-25 22:21:00,
2013-01-25 17:27:00,13.1,-8.8,29.71,WSW,250,0.0,0.0,36,0.00,,CLR,0.00,VWS V14.01,2013-01-25 22:27:00,
2013-01-25 17:32:00,12.9,-9.0,29.71,WSW,250,0.0,0.0,36,0.00,,CLR,0.00,VWS V14.01,2013-01-25 22:32:00,
2013-01-25 17:37:00,12.6,-9.3,29.71,WSW,250,0.0,0.0,36,0.00,,CLR,0.00,VWS V14.01,2013-01-25 22:37:00,
2013-01-25 17:42:00,12.2,-9.6,29.71,WSW,250,0.0,0.0,36,0.00,,CLR,0.00,VWS V14.01,2013-01-25 22:42:00,
2013-01-25 17:47:00,11.8,-10.0,29.71,WSW,250,0.0,0.0,36,0.00,,CLR,0.00,VWS V14.01,2013-01-25 22:47:00,
2013-01-25 17:52:00,11.8,-10.0,29.71,WSW,250,0.0,0.0,36,0.00,,CLR,0.00,VWS V14.01,2013-01-25 22:52:00,
2013-01-25 17:57:00,11.7,-10.1,29.71,WSW,250,0.0,0.0,36,0.00,,CLR,0.00,VWS V14.01,2013-01-25 22:57:00,
2013-01-25 18:02:00,11.3,-10.4,29.71,WSW,250,0.0,0.0,36,0.00,,CLR,0.00,VWS V14.01,2013-01-25 23:02:00,
2013-01-25 18:07:00,11.1,-10.6,29.71,WSW,250,0.0,0.0,36,0.00,,CLR,0.00,VWS V14.01,2013-01-25 23:07:00,
2013-01-25 18:12:00,10.9,-10.8,29.71,WSW,250,0.0,0.0,36,0.00,,CLR,0.00,VWS V14.01,2013-01-25 23:12:00,
2013-01-25 18:17:00,10.8,-10.9,29.71,WSW,250,0.0,0.0,36,0.00,,CLR,0.00,VWS V14.01,2013-01-25 23:17:00,
2013-01-25 18:22:00,10.8,-10.9,29.71,SW,236,0.0,0.0,36,0.00,,CLR,0.00,VWS V14.01,2013-01-25 23:22:00,
2013-01-25 18:27:00,10.9,-10.8,29.71,SW,235,0.0,0.0,36,0.00,,CLR,0.00,VWS V14.01,2013-01-25 23:27:00,
2013-01-25 18:33:00,10.9,-10.8,29.71,SW,235,0.0,0.0,36,0.00,,CLR,0.00,VWS V14.01,2013-01-25 23:33:00,
2013-01-25 18:38:00,11.1,-10.6,29.71,SW,235,0.0,0.0,36,0.00,,CLR,0.00,VWS V14.01,2013-01-25 23:38:00,
2013-01-25 18:43:00,11.3,-10.4,29.71,SW,235,0.0,0.0,36,0.00,,CLR,0.00,VWS V14.01,2013-01-25 23:43:00,
2013-01-25 18:48:00,11.5,-10.3,29.71,SW,235,0.0,0.0,36,0.00,,CLR,0.00,VWS V14.01,2013-01-25 23:48:00,
2013-01-25 18:53:00,11.7,-10.1,29.71,SW,235,0.0,0.0,36,0.00,,CLR,0.00,VWS V14.01,2013-01-25 23:53:00,
2013-01-25 18:58:00,11.8,-10.0,29.71,SW,235,0.0,0.0,36,0.00,,CLR,0.00,VWS V14.01,2013-01-25 23:58:00,
2013-01-25 19:03:00,11.8,-10.0,29.71,SW,235,0.0,0.0,36,0.00,,CLR,0.00,VWS V14.01,2013-01-26 00:03:00,
2013-01-25 19:08:00,11.8,-10.0,29.71,SW,235,0.0,0.0,36,0.00,,CLR,0.00,VWS V14.01,2013-01-26 00:08:00,
2013-01-25 19:13:00,11.8,-10.0,29.71,SW,235,0.0,0.0,36,0.00,,CLR,0.00,VWS V14.01,2013-01-26 00:13:00,
2013-01-25 19:18:00,11.8,-10.0,29.71,SW,235,0.0,0.0,36,0.00,,CLR,0.00,VWS V14.01,2013-01-26 00:18:00,
2013-01-25 19:23:00,11.8,-10.0,29.71,SW,235,0.0,0.0,36,0.00,,CLR,0.00,VWS V14.01,2013-01-26 00:23:00,
2013-01-25 19:28:00,11.8,-10.0,29.71,SW,235,0.0,0.0,36,0.00,,CLR,0.00,VWS V14.01,2013-01-26 00:28:00,
2013-01-25 19:33:00,11.8,-10.0,29.68,SW,235,0.0,0.0,36,0.00,,CLR,0.00,VWS V14.01,2013-01-26 00:33:00,
2013-01-25 19:39:00,11.8,-10.0,29.68,SW,235,0.0,0.0,36,0.00,,CLR,0.00,VWS V14.01,2013-01-26 00:39:00,
2013-01-25 19:44:00,12.0,-9.8,29.68,SW,235,0.0,0.0,36,0.00,,CLR,0.00,VWS V14.01,2013-01-26 00:44:00,
2013-01-25 19:49:00,12.4,-9.5,29.71,SW,235,0.0,0.0,36,0.00,,CLR,0.00,VWS V14.01,2013-01-26 00:49:00,
2013-01-25 19:54:00,12.6,-9.3,29.71,SW,232,0.0,0.0,36,0.00,,CLR,0.00,VWS V14.01,2013-01-26 00:54:00,
2013-01-25 19:59:00,12.7,-9.2,29.71,SW,232,0.0,0.0,36,0.00,,CLR,0.00,VWS V14.01,2013-01-26 00:59:00,
2013-01-25 20:04:00,12.7,-9.2,29.71,SW,232,0.0,0.0,36,0.00,,CLR,0.00,VWS V14.01,2013-01-26 01:04:00,
2013-01-25 20:09:00,12.6,-9.3,29.71,SW,232,0.0,0.0,36,0.00,,CLR,0.00,VWS V14.01,2013-01-26 01:09:00,
2013-01-25 20:14:00,12.6,-9.3,29.71,SW,232,0.0,0.0,36,0.00,,CLR,0.00,VWS V14.01,2013-01-26 01:14:00,
2013-01-25 20:19:00,12.2,-9.6,29.68,SW,232,0.0,0.0,36,0.00,,CLR,0.00,VWS V14.01,2013-01-26 01:19:00,
2013-01-25 20:24:00,12.2,-9.6,29.68,SW,232,0.0,0.0,36,0.00,,CLR,0.00,VWS V14.01,2013-01-26 01:24:00,
2013-01-25 20:29:00,12.0,-9.8,29.68,SW,232,0.0,0.0,36,0.00,,CLR,0.00,VWS V14.01,2013-01-26 01:29:00,
2013-01-25 20:35:00,11.8,-10.0,29.68,SW,232,0.0,0.0,36,0.00,,CLR,0.00,VWS V14.01,2013-01-26 01:35:00,
2013-01-25 20:40:00,11.5,-10.3,29.68,SW,231,0.0,0.0,36,0.00,,CLR,0.00,VWS V14.01,2013-01-26 01:40:00,
2013-01-25 20:45:00,11.3,-10.4,29.68,SW,232,0.0,0.0,36,0.00,,CLR,0.00,VWS V14.01,2013-01-26 01:45:00,
2013-01-25 20:50:00,11.1,-10.6,29.68,SW,231,0.0,0.0,36,0.00,,CLR,0.00,VWS V14.01,2013-01-26 01:50:00,
2013-01-25 20:55:00,11.1,-10.6,29.68,SW,232,0.0,0.0,36,0.00,,CLR,0.00,VWS V14.01,2013-01-26 01:55:00,
2013-01-25 21:00:00,10.9,-10.8,29.68,SW,232,0.0,0.0,36,0.00,,CLR,0.00,VWS V14.01,2013-01-26 02:00:00,
2013-01-25 21:05:00,10.9,-10.8,29.65,SW,232,0.0,0.0,36,0.00,,BKN110,0.00,VWS V14.01,2013-01-26 02:05:00,
2013-01-25 21:10:00,10.9,-10.8,29.65,SW,232,0.0,0.0,36,0.00,,BKN110,0.00,VWS V14.01,2013-01-26 02:10:00,
2013-01-25 21:15:00,10.9,-10.8,29.65,SW,232,0.0,0.0,36,0.00,,BKN110,0.00,VWS V14.01,2013-01-26 02:15:00,
2013-01-25 21:20:00,10.9,-10.8,29.65,SW,232,0.0,0.0,36,0.00,,BKN110,0.00,VWS V14.01,2013-01-26 02:20:00,
2013-01-25 21:25:00,10.9,-10.8,29.65,SW,232,0.0,0.0,36,0.00,,BKN110,0.00,VWS V14.01,2013-01-26 02:25:00,
2013-01-25 21:30:00,11.1,-10.6,29.65,SW,232,0.0,0.0,36,0.00,,BKN110,0.00,VWS V14.01,2013-01-26 02:30:00,
2013-01-25 21:35:00,11.3,-10.4,29.65,SW,231,0.0,0.0,36,0.00,,BKN110,0.00,VWS V14.01,2013-01-26 02:35:00,
2013-01-25 21:41:00,11.7,-10.1,29.65,SW,231,0.0,0.0,36,0.00,,BKN110,0.00,VWS V14.01,2013-01-26 02:41:00,
2013-01-25 21:46:00,11.7,-10.1,29.65,SW,231,0.0,0.0,36,0.00,,BKN110,0.00,VWS V14.01,2013-01-26 02:46:00,
2013-01-25 21:51:00,11.7,-10.1,29.65,SW,231,0.0,0.0,36,0.00,,BKN110,0.00,VWS V14.01,2013-01-26 02:51:00,
2013-01-25 21:56:00,11.7,-10.1,29.65,SW,231,0.0,0.0,36,0.00,,BKN110,0.00,VWS V14.01,2013-01-26 02:56:00,
2013-01-25 22:01:00,11.8,-10.0,29.65,SW,231,0.0,0.0,36,0.00,,OVC110,0.00,VWS V14.01,2013-01-26 03:01:00,
2013-01-25 22:06:00,12.0,-9.8,29.65,SW,231,0.0,0.0,36,0.00,,OVC110,0.00,VWS V14.01,2013-01-26 03:06:00,
2013-01-25 22:11:00,12.0,-9.8,29.65,SW,231,0.0,0.0,36,0.00,,OVC110,0.00,VWS V14.01,2013-01-26 03:11:00,
2013-01-25 22:16:00,12.0,-9.8,29.65,SW,231,0.0,0.0,36,0.00,,OVC110,0.00,VWS V14.01,2013-01-26 03:16:00,
2013-01-25 22:21:00,12.0,-9.8,29.65,SW,231,0.0,0.0,36,0.00,,OVC110,0.00,VWS V14.01,2013-01-26 03:21:00,
2013-01-25 22:26:00,12.0,-9.8,29.65,SW,231,0.0,0.0,36,0.00,,OVC110,0.00,VWS V14.01,2013-01-26 03:26:00,
2013-01-25 22:31:00,12.0,-9.8,29.65,SW,231,0.0,0.0,36,0.00,,OVC110,0.00,VWS V14.01,2013-01-26 03:31:00,
2013-01-25 22:37:00,12.0,-9.8,29.65,SW,231,0.0,0.0,36,0.00,,OVC110,0.00,VWS V14.01,2013-01-26 03:37:00,
2013-01-25 22:42:00,12.0,-9.8,29.65,SW,231,0.0,0.0,36,0.00,,OVC110,0.00,VWS V14.01,2013-01-26 03:42:00,
2013-01-25 22:47:00,12.0,-9.8,29.65,SW,231,0.0,0.0,36,0.00,,OVC110,0.00,VWS V14.01,2013-01-26 03:47:00,
2013-01-25 22:52:00,12.0,-9.8,29.65,SW,231,0.0,0.0,36,0.00,,OVC110,0.00,VWS V14.01,2013-01-26 03:52:00,
2013-01-25 22:57:00,12.0,-9.8,29.65,SW,231,0.0,0.0,36,0.00,,OVC110,0.00,VWS V14.01,2013-01-26 03:57:00,
2013-01-25 23:02:00,11.8,-10.0,29.65,SW,231,0.0,0.0,36,0.00,,OVC100,0.00,VWS V14.01,2013-01-26 04:02:00,
2013-01-25 23:07:00,11.8,-10.0,29.65,SW,231,0.0,0.0,36,0.00,,OVC100,0.00,VWS V14.01,2013-01-26 04:07:00,
2013-01-25 23:12:00,11.8,-10.0,29.65,SW,231,0.0,0.0,36,0.00,,OVC100,0.00,VWS V14.01,2013-01-26 04:12:00,
2013-01-25 23:17:00,11.8,-10.0,29.65,SW,231,0.0,0.0,36,0.00,,OVC100,0.00,VWS V14.01,2013-01-26 04:17:00,
2013-01-25 23:22:00,11.8,-10.0,29.65,SW,231,0.0,0.0,36,0.00,,OVC100,0.00,VWS V14.01,2013-01-26 04:22:00,
2013-01-25 23:27:00,11.7,-10.1,29.65,SW,231,0.0,0.0,36,0.00,,OVC100,0.00,VWS V14.01,2013-01-26 04:27:00,
2013-01-25 23:32:00,11.7,-10.1,29.62,SW,231,0.0,0.0,36,0.00,,OVC100,0.00,VWS V14.01,2013-01-26 04:32:00,
2013-01-25 23:38:00,11.7,-10.1,29.62,SW,231,0.0,0.0,36,0.00,,OVC100,0.00,VWS V14.01,2013-01-26 04:38:00,
2013-01-25 23:43:00,11.7,-10.1,29.62,SW,231,0.0,0.0,36,0.00,,OVC100,0.00,VWS V14.01,2013-01-26 04:43:00,
2013-01-25 23:48:00,11.7,-10.1,29.62,SW,231,0.0,0.0,36,0.00,,OVC100,0.00,VWS V14.01,2013-01-26 04:48:00,
2013-01-25 23:53:00,11.5,-10.3,29.62,SW,231,0.0,0.0,36,0.00,,OVC100,0.00,VWS V14.01,2013-01-26 04:53:00,
2013-01-25 23:58:00,11.5,-10.3,29.62,SW,231,0.0,0.0,36,0.00,,OVC100,0.00,VWS V14.01,2013-01-26 04:58:00,